Location: Conjunto Santa Maria
(19.9513°S, 43.9599°W)
Time: 13:46:09
(UTC+00:00)

HJ-1C - Pass Details

Date: 21 January 2021
Orbit: 428 x 442 km, 97.1° (Epoch: 04 March)

Event Time Altitude Azimuth Distance (km) Brightness Sun altitude
Rises 22:01:21 0° 153° (SSE) 2,417 7.1 -5.3°
Reaches altitude 10° 22:03:35 10° 140° (SE) 1,544 6.0 -5.7°
Maximum altitude 22:06:24 26° 81° (E) 900 4.4 -6.3°
Drops below altitude 10° 22:09:12 10° 23° (NNE) 1,533 5.7 -6.9°
Sets 22:11:25 0° 10° (N) 2,395 6.8 -7.4°
